sat.trackr.live / text

‹ back to catalog

YAOGAN-34 03

NORAD 54249 · 2022-154A

PAYLOAD ACTIVE UNKNOWN

§ Identity

Operator
Country
PRC
Launch date
2022-11-15
Launch site
JSC
Launch vehicle
Mass (kg)
RCS (m²)

External: N2YO · Heavens-Above · Gunter

§ Orbital elements

Epoch: 2026-09-20T21:30:37.490400Z

Period
107.02 min
Inclination
63.4082°
Eccentricity
0.0049456
Mean motion
13.45517093 rev/d
Perigee alt
1,051.9 km
Apogee alt
1,125.7 km
Semi-major
7,466.9 km
B*
9.2750e-6
RAAN
16.3681°
Arg perigee
351.6876°
Mean anomaly
8.3326°
Rev number
18,913

§ Raw data

YAOGAN-34 031 54249U 22154A   26263.89626725 -.00000085  00000+0  92750-5 0  99932 54249  63.4082  16.3681 0049456 351.6876   8.3326 13.45517093189130

JSON: /api/v1/satellites/54249 · /tle

For live sub-satellite position, see the globe view (requires WebGL).

§ Visibility from observer

Set your observer location to see the next 7 days of passes ≥ 10°. The values pass through the URL so the page stays shareable.

No JS? Fill the form by hand. The geolocation button needs JavaScript.